Weather History for EGNH - November, 2012

Change the Weather History Date:

Sunday, November 11, 2012

  Actual Average Record
Temperature  
Mean Temperature 48 °F -  
Max Temperature 51 °F 46 °F 57 °F (2005)
Min Temperature 46 °F 40 °F 33 °F (1996)
Degree Days  
Heating Degree Days 16    
Moisture  
Dew Point 44 °F    
Average Humidity 83    
Maximum Humidity 93    
Minimum Humidity 69    
Precipitation  
Precipitation 0.02 in - - ()
Sea Level Pressure  
Sea Level Pressure 29.89 in    
Wind  
Wind Speed 8 mph ()    
Max Wind Speed 13 mph    
Max Gust Speed -    
Visibility 6.2 miles    
Events Rain    
Averages and records for this station are not official NWS values.
T = Trace of Precipitation, MM = Missing Value Source: Averaged Metar Reports

Daily Weather History Graph

Daily Weather History Graph

Search for Another Location

Airport or City:

Trip Planner

Search our weather history database for the weather conditions in past years. The results will help you decide how hot, cold, wet, or windy it might be!

Date:

Astronomy

Nov. 11, 2012 Rise Set
Actual Time 7:31 AM GMT 4:19 PM GMT
Civil Twilight 6:53 AM GMT 4:58 PM GMT
Nautical Twilight 6:10 AM GMT 5:41 PM GMT
Astronomical Twilight 5:29 AM GMT 6:22 PM GMT
Moon 4:07 AM GMT (11/11) 2:51 PM GMT (11/11)
Length of Visible Light 10h 05m
Length of Day
8h 47m
Waning Crescent, 8% of the Moon is Illuminated
Nov 11
Waning Crescent
Nov 13
New
Nov 20
First Quarter
Nov 28
Full
Dec 6
Last Quarter

Hourly Weather History & Observations

Time (GMT) Temp. Windchill Dew Point Humidity Pressure Visibility Wind Dir Wind Speed Gust Speed Precip Events Conditions
2:50 AM 46 °F - 41 °F 76%  in - WNW 10.4 mph - -  
5:50 AM 47 °F - 43 °F 82%  in - WNW 10.4 mph - -  
6:20 AM 46.4 °F 42.9 °F 44.6 °F 93% 29.71 in 6.2 mi NW 6.9 mph - N/A   Partly Cloudy
6:50 AM 46.4 °F 42.4 °F 44.6 °F 93% 29.71 in 6.2 mi NNW 8.1 mph - N/A   Partly Cloudy
7:20 AM 46.4 °F 42.4 °F 42.8 °F 87% 29.74 in 6.2 mi NW 8.1 mph - N/A Rain Light Rain Showers
7:50 AM 46.4 °F - 42.8 °F 87% 29.74 in 6.2 mi Variable 2.3 mph - N/A   Mostly Cloudy
8:20 AM 46.4 °F 43.5 °F 42.8 °F 87% 29.77 in 6.2 mi NW 5.8 mph - N/A   Scattered Clouds
8:50 AM 48 °F - 43 °F 77%  in - WNW 10.4 mph - -  
8:50 AM 48.2 °F - 44.6 °F 87% 29.77 in 6.2 mi WNW 9.2 mph - N/A   Partly Cloudy
9:20 AM 48.2 °F - 44.6 °F 87% 29.80 in 6.2 mi WNW 11.5 mph - N/A   Partly Cloudy
9:50 AM 50.0 °F - 44.6 °F 82% 29.83 in 6.2 mi WNW 12.7 mph - N/A   Partly Cloudy
10:20 AM 50.0 °F - 44.6 °F 82% 29.83 in 6.2 mi WNW 11.5 mph - N/A   Partly Cloudy
10:50 AM 50.0 °F - 44.6 °F 82% 29.83 in 6.2 mi NW 10.4 mph - N/A   Partly Cloudy
11:20 AM 51.8 °F - 46.4 °F 82% 29.83 in 6.2 mi WNW 10.4 mph - N/A   Partly Cloudy
11:50 AM 50 °F - 45 °F 77%  in - West 11.5 mph - -  
11:50 AM 51.8 °F - 46.4 °F 82% 29.83 in 6.2 mi WNW 12.7 mph - N/A   Partly Cloudy
12:20 PM 51.8 °F - 46.4 °F 82% 29.86 in 6.2 mi WNW 12.7 mph - N/A   Partly Cloudy
12:50 PM 50.0 °F - 44.6 °F 82% 29.86 in 6.2 mi WNW 12.7 mph - N/A   Partly Cloudy
1:20 PM 51.8 °F - 44.6 °F 76% 29.89 in 6.2 mi WNW 10.4 mph - N/A   Partly Cloudy
1:50 PM 51.8 °F - 44.6 °F 76% 29.89 in 6.2 mi WNW 9.2 mph - N/A   Partly Cloudy
2:20 PM 51.8 °F - 44.6 °F 76% 29.92 in 6.2 mi WNW 9.2 mph - N/A   Partly Cloudy
2:50 PM 49 °F - 42 °F 69%  in - WNW 9.2 mph - -  
2:50 PM 50.0 °F - 42.8 °F 76% 29.92 in 6.2 mi NW 10.4 mph - N/A   Scattered Clouds
3:20 PM 50.0 °F - 44.6 °F 82% 29.92 in 6.2 mi WNW 9.2 mph - N/A   Scattered Clouds
3:50 PM 50.0 °F - 44.6 °F 82% 29.92 in 6.2 mi West 5.8 mph - N/A   Light Drizzle
4:20 PM 48.2 °F - 44.6 °F 87% 29.92 in 6.2 mi WSW 3.5 mph - N/A   Scattered Clouds
4:50 PM 46.4 °F 44.3 °F 44.6 °F 93% 29.95 in 6.2 mi West 4.6 mph - N/A   Scattered Clouds
5:20 PM 48.2 °F - 44.6 °F 87% 29.95 in 6.2 mi WNW 9.2 mph - N/A   Scattered Clouds
5:50 PM 48 °F - 43 °F 77%  in - WNW 9.2 mph - -  
5:50 PM 50.0 °F - 44.6 °F 82% 29.95 in 6.2 mi WNW 8.1 mph - N/A   Scattered Clouds
6:20 PM 48.2 °F - 44.6 °F 87% 29.98 in 6.2 mi WNW 8.1 mph - N/A   Partly Cloudy
6:50 PM 48.2 °F - 44.6 °F 87% 29.98 in 6.2 mi WNW 6.9 mph - N/A   Partly Cloudy
7:20 PM 48.2 °F - 44.6 °F 87% 29.98 in 6.2 mi WNW 4.6 mph - N/A   Partly Cloudy
7:50 PM 48.2 °F - 42.8 °F 82% 30.01 in 6.2 mi West 2.3 mph - N/A   Partly Cloudy
8:20 PM 46.4 °F 42.9 °F 42.8 °F 87% 30.01 in 6.2 mi WSW 6.9 mph - N/A Rain Light Rain
8:50 PM 47 °F - 42 °F 78%  in - West 6.9 mph - -  
8:50 PM 48.2 °F - 42.8 °F 82% 30.01 in 6.2 mi WNW 6.9 mph - N/A Rain Light Rain
11:20 PM 46.4 °F 41.5 °F 44.6 °F 93% 30.01 in 6.2 mi SSW 10.4 mph - N/A   Scattered Clouds
11:50 PM 47 °F - 44 °F 84%  in - SW 9.2 mph - -  
11:50 PM 48.2 °F - 44.6 °F 87% 30.01 in 6.2 mi SW 8.1 mph - N/A   Scattered Clouds